Tracking 19644 objects as of 24-Apr-2019
HD Live streaming from Space Station
objects crossing your sky now

THORAD AGENA D DEB

Track THORAD AGENA D DEB now!
10-day predictions


NORAD ID: 42529
Int'l Code: 1970-025SK
Perigee: 833.9 km
Apogee: 1,148.0 km
Inclination: 98.7 °
Period: 104.8 minutes
Semi major axis: 7361 km
RCS: Unknown
Launch date: April 8, 1970
Source: United States (US)
Launch site: AIR FORCE WESTERN TEST RANGE (AFWTR)

Note: This is SATELLITE DEBRIS
aabbcc
Your satellite tracking list
Your tracking list is empty




NASA's NSSDC Master Catalog

Two Line Element Set (TLE):
1 42529U 70025SK  19114.10217458  .00000938  00000-0  87557-3 0  9995
2 42529  98.6815  81.7405 0213298 169.7817 190.7774 13.74406006276719
Source of the keplerian elements: AFSPC